DW7756 Weather Reports


Display with metric or nautical units.
time (UTC)temp
F
wind
direction
speed
MPH
gust
MPH
rain 1hr
in
rain 24hr
in
rain mn
in
humidity
%
barometer
mb
20260831231538 83 0 0.0 2.0 0.00 0.00 0.00 79 1016.2
20260831230038 83 87 0.0 2.0 0.00 0.00 0.00 79 1016.1
20260831224536 83 0 0.0 4.0 0.00 0.00 0.00 79 1016.2
20260831223039 84 0 0.0 4.0 0.00 0.00 0.00 79 1016.4
20260831221540 84 9 0.0 4.0 0.00 0.00 0.00 79 1016.4
20260831220037 84 0 0.0 4.0 0.00 0.00 0.00 78 1016.7
20260831214537 84 0 0.0 2.0 0.00 0.00 0.00 78 1016.7
20260831213036 84 0 0.0 3.0 0.00 0.00 0.00 78 1016.7
20260831211558 84 0 0.0 3.0 0.00 0.00 0.00 77 1016.6
20260831210036 84 0 0.0 2.0 0.00 0.00 0.00 77 1016.5
20260831204541 84 0 0.0 2.0 0.00 0.00 0.00 77 1016.6
20260831203037 84 82 0.0 4.0 0.00 0.00 0.00 77 1016.6
20260831201535 84 82 1.0 4.0 0.00 0.00 0.00 77 1016.8
20260831200036 85 104 0.0 3.0 0.00 0.00 0.00 77 1016.8
20260831194533 85 27 1.0 6.0 0.00 0.00 0.00 76 1016.6
20260831193041 85 38 1.0 4.0 0.00 0.00 0.00 75 1016.8
20260831191539 85 25 0.0 5.0 0.00 0.00 0.00 75 1017.0
20260831190104 85 39 3.0 9.0 0.00 0.00 0.00 74 1017.1
20260831184534 85 360 1.0 7.0 0.00 0.03 0.00 75 1017.0
20260831183038 86 5 2.0 6.0 0.00 0.03 0.00 75 1016.9
20260831181545 86 21 2.0 16.0 0.00 0.03 0.00 74 1016.8
20260831180037 88 11 2.0 11.0 0.00 0.03 0.00 72 1016.8
20260831174541 87 307 5.0 11.0 0.00 0.16 0.00 72 1017.0
20260831173038 87 300 6.0 14.0 0.00 0.16 0.00 74 1017.1
20260831171536 87 50 6.0 15.0 0.00 0.16 0.00 74 1017.4
20260831170039 90 21 4.0 10.0 0.00 0.16 0.00 70 1017.6
20260831164549 90 67 2.0 9.0 0.00 0.16 0.00 70 1017.7
20260831163038 89 42 2.0 7.0 0.00 0.16 0.00 71 1017.6
20260831161536 89 90 1.0 9.0 0.00 0.16 0.00 72 1017.9
20260831160041 89 47 1.0 5.0 0.00 0.16 0.00 71 1018.2
20260831154614 89 30 1.0 6.0 0.00 0.16 0.00 70 1018.2
20260831153050 91 75 1.0 4.0 0.00 0.16 0.00 69 1018.1
20260831151543 89 74 1.0 4.0 0.00 0.16 0.00 69 1018.1
20260831150045 88 103 2.0 6.0 0.00 0.16 0.00 68 1018.0
20260831144538 87 92 1.0 3.0 0.00 0.16 0.00 75 1017.9
20260831143039 85 360 0.0 2.0 0.00 0.16 0.00 77 1017.7
20260831141534 85 0 0.0 3.0 0.00 0.16 0.00 83 1017.8
20260831140038 83 323 0.0 3.0 0.00 0.16 0.00 85 1017.5
20260831134544 83 9 1.0 2.0 0.00 0.16 0.00 88 1017.4
20260831133036 82 0 0.0 2.0 0.00 0.16 0.00 89 1017.5
20260831131542 81 5 1.0 4.0 0.00 0.16 0.00 90 1017.2
20260831130039 80 18 2.0 4.0 0.00 0.16 0.00 91 1017.2
20260831124535 79 5 2.0 4.0 0.00 0.16 0.00 91 1017.2
20260831123036 79 348 1.0 4.0 0.00 0.16 0.00 91 1017.4
20260831121536 78 360 2.0 3.0 0.00 0.16 0.00 91 1017.1
20260831120042 77 0 0.0 2.0 0.00 0.16 0.00 91 1016.9
20260831114540 77 350 1.0 2.0 0.00 0.16 0.00 91 1016.7
20260831113042 76 350 1.0 2.0 0.00 0.16 0.00 91 1016.4
20260831111537 76 350 1.0 2.0 0.00 0.16 0.00 91 1016.2
20260831110038 76 350 0.0 2.0 0.00 0.16 0.00 91 1016.2
20260831104550 76 0 0.0 1.0 0.00 0.16 0.00 91 1016.1
20260831103038 76 0 0.0 0.0 0.00 0.16 0.00 91 1016.0
20260831101544 76 0 0.0 0.0 0.00 0.16 0.00 91 1015.8
20260831100037 76 0 0.0 0.0 0.00 0.16 0.00 91 1015.8
20260831094543 76 0 0.0 2.0 0.00 0.16 0.00 91 1015.7
20260831093101 76 350 0.0 2.0 0.00 0.16 0.00 91 1015.9
20260831091546 76 350 1.0 2.0 0.00 0.16 0.00 91 1015.8
20260831090036 76 350 1.0 2.0 0.00 0.16 0.00 91 1015.7
20260831084627 76 350 0.0 2.0 0.00 0.16 0.00 90 1015.8
20260831083046 76 350 0.0 2.0 0.00 0.16 0.00 90 1015.9
20260831081539 76 350 1.0 2.0 0.00 0.16 0.00 90 1016.0
20260831080050 76 0 0.0 0.0 0.00 0.16 0.00 90 1016.1
20260831074547 77 0 0.0 2.0 0.00 0.16 0.00 90 1016.1
20260831073042 77 318 0.0 2.0 0.00 0.16 0.00 90 1016.3
20260831071545 77 246 0.0 2.0 0.00 0.16 0.00 90 1016.3
20260831070038 77 191 0.0 4.0 0.00 0.16 0.00 90 1016.6
20260831064545 77 334 0.0 2.0 0.00 0.16 0.00 90 1016.4
20260831063059 77 334 1.0 3.0 0.00 0.16 0.00 90 1016.7
20260831061537 77 268 1.0 4.0 0.00 0.16 0.00 90 1016.6
20260831060040 77 0 0.0 0.0 0.00 0.16 0.00 89 1016.9
20260831054536 77 0 0.0 0.0 0.00 0.16 0.00 89 1016.8
20260831053052 77 0 0.0 0.0 0.00 0.16 0.00 89 1016.8
20260831051540 77 0 0.0 0.0 0.00 0.16 0.00 89 1017.1
20260831050039 77 0 0.0 0.0 0.00 0.16 0.00 89 1017.2
20260831044539 77 0 0.0 0.0 0.00 0.16 0.00 89 1017.2
20260831043043 77 0 0.0 0.0 0.00 0.16 0.00 88 1017.3
20260831041543 77 0 0.0 0.0 0.00 0.16 0.00 88 1017.4
20260831040042 77 0 0.0 0.0 0.00 0.16 0.00 88 1017.4
20260831034539 77 0 0.0 0.0 0.00 0.16 0.16 88 1017.5
20260831033041 77 0 0.0 0.0 0.00 0.16 0.16 88 1017.5
20260831031534 77 0 0.0 0.0 0.00 0.16 0.16 88 1017.5
20260831030048 77 0 0.0 0.0 0.00 0.16 0.16 87 1017.7
20260831024546 77 0 0.0 0.0 0.00 0.17 0.16 87 1017.7
20260831023040 78 0 0.0 0.0 0.00 0.17 0.16 87 1017.6
20260831021536 78 0 0.0 1.0 0.00 0.17 0.16 86 1017.6
20260831020039 78 0 0.0 0.0 0.00 0.17 0.16 86 1017.7
20260831014540 78 0 0.0 0.0 0.00 0.17 0.16 86 1017.3
20260831013035 79 0 0.0 0.0 0.00 0.17 0.16 85 1017.3
20260831011542 79 0 0.0 0.0 0.00 0.17 0.16 85 1017.4
20260831010036 79 0 0.0 0.0 0.00 0.17 0.16 84 1017.4
20260831004542 80 0 0.0 0.0 0.00 0.17 0.16 84 1017.4
20260831003036 80 0 0.0 0.0 0.00 0.17 0.16 83 1017.4
20260831001540 81 0 0.0 0.0 0.00 0.17 0.16 82 1017.4
20260831000037 81 0 0.0 0.0 0.00 0.17 0.16 81 1017.3
20260830234543 81 0 0.0 2.0 0.00 0.17 0.16 81 1017.2
20260830233038 82 0 0.0 0.0 0.00 0.17 0.16 80 1017.1